Weather History for Gainesville, FL

Change the Weather History Date:

Monday, February 25, 2013

  Actual Average Record
Temperature  
Mean Temperature 67 °F 59 °F  
Max Temperature 75 °F 71 °F 85 °F (1962)
Min Temperature 59 °F 47 °F 23 °F (1989)
Degree Days  
Heating Degree Days 0 7  
Month to date heating degree days 176 212  
Since 1 July heating degree days 720 1014  
Cooling Degree Days 2 1  
Month to date cooling degree days 37 21  
Year to date cooling degree days 97 33  
Growing Degree Days 16 (Base 50)    
Moisture  
Dew Point 61 °F    
Average Humidity 85    
Maximum Humidity 97    
Minimum Humidity 73    
Precipitation  
Precipitation 0.54 in 0.12 in 1.82 in (1960)
Month to date precipitation 1.11 2.84  
Year to date precipitation 1.44 6.15  
Snow  
Snow 0.00 in 0.00 in 0.00 in ()
Month to date snowfall 0.0 0.0  
Since 1 July snowfall 0.0 0.0  
Snow Depth 0.00 in    
Sea Level Pressure  
Sea Level Pressure 29.86 in    
Wind  
Wind Speed 6 mph (ENE)    
Max Wind Speed 18 mph    
Max Gust Speed -    
Visibility 9 miles    
Events Rain    
T = Trace of Precipitation, MM = Missing Value Source: NWS Daily Summary

Daily Weather History Graph

Daily Weather History Graph

Search for Another Location

Airport:

Trip Planner

Search our weather history database for the weather conditions in past years. The results will help you decide how hot, cold, wet, or windy it might be!

Date:

Astronomy

Feb. 25, 2013 Rise Set
Actual Time 6:58 AM EST 6:25 PM EST
Civil Twilight 6:34 AM EST 6:49 PM EST
Nautical Twilight 6:07 AM EST 7:17 PM EST
Astronomical Twilight 5:39 AM EST 7:45 PM EST
Moon 6:32 PM EST (2/25) 6:31 AM EST (2/25)
Length of Visible Light 12h 15m
Length of Day
11h 27m
Full, 100% of the Moon is Illuminated
Feb 25
Full
Feb 25
Full
Mar 4
Last Quarter
Mar 11
New
Mar 19
First Quarter

Hourly Weather History & Observations

Time (EST) Temp. Dew Point Humidity Pressure Visibility Wind Dir Wind Speed Gust Speed Precip Events Conditions
12:53 AM 60.1 °F 55.9 °F 86% 29.94 in 10.0 mi NE 4.6 mph - 0.00 in Rain Light Rain
1:53 AM 59.0 °F 57.0 °F 93% 29.92 in 10.0 mi East 4.6 mph - 0.00 in Rain Light Rain
2:53 AM 59.0 °F 57.0 °F 93% 29.88 in 10.0 mi ENE 5.8 mph - 0.01 in Rain Light Rain
3:12 AM 59.0 °F 57.2 °F 94% 29.89 in 10.0 mi Calm Calm - 0.00 in Rain Light Rain
3:53 AM 59.0 °F 57.9 °F 96% 29.89 in 10.0 mi Calm Calm - 0.00 in   Overcast
4:15 AM 60.8 °F 57.2 °F 88% 29.89 in 10.0 mi Calm Calm - N/A   Overcast
4:53 AM 60.1 °F 57.9 °F 93% 29.88 in 10.0 mi Calm Calm - N/A   Overcast
5:53 AM 60.1 °F 57.9 °F 93% 29.88 in 10.0 mi East 5.8 mph - N/A   Overcast
6:53 AM 61.0 °F 59.0 °F 93% 29.90 in 10.0 mi North 3.5 mph - N/A   Overcast
7:53 AM 61.0 °F 59.0 °F 93% 29.91 in 10.0 mi NNE 4.6 mph - N/A   Overcast
8:53 AM 63.0 °F 60.1 °F 90% 29.91 in 10.0 mi East 3.5 mph - N/A   Overcast
9:49 AM 64.4 °F 62.6 °F 94% 29.90 in 10.0 mi East 6.9 mph - N/A   Overcast
9:53 AM 64.9 °F 62.1 °F 90% 29.90 in 10.0 mi East 8.1 mph - N/A   Overcast
10:53 AM 69.1 °F 64.0 °F 84% 29.91 in 10.0 mi ESE 6.9 mph - N/A   Overcast
11:03 AM 69.8 °F 64.4 °F 83% 29.91 in 10.0 mi ESE 9.2 mph - N/A   Overcast
11:53 AM 71.1 °F 64.9 °F 81% 29.88 in 10.0 mi East 8.1 mph - N/A   Overcast
12:15 PM 73.4 °F 64.4 °F 73% 29.88 in 10.0 mi NNE 6.9 mph - N/A   Overcast
1:21 PM 69.8 °F 62.6 °F 78% 29.85 in 10.0 mi NNE 15.0 mph - N/A   Overcast
1:37 PM 66.2 °F 64.4 °F 94% 29.82 in 1.8 mi NNE 16.1 mph - 0.08 in Rain Heavy Rain
1:44 PM 66.2 °F 64.4 °F 94% 29.84 in 3.0 mi NE 10.4 mph - 0.14 in Rain Light Rain
1:53 PM 66.9 °F 64.0 °F 90% 29.84 in 10.0 mi Variable 5.8 mph - 0.14 in Rain Light Rain
2:09 PM 66.2 °F 64.4 °F 94% 29.83 in 10.0 mi ENE 11.5 mph - 0.00 in   Mostly Cloudy
2:43 PM 66.2 °F 64.4 °F 94% 29.84 in 10.0 mi NE 9.2 mph - 0.00 in   Mostly Cloudy
2:53 PM 66.0 °F 63.0 °F 90% 29.84 in 10.0 mi ENE 10.4 mph - 0.00 in Rain Light Rain
3:19 PM 66.2 °F 62.6 °F 88% 29.84 in 10.0 mi ENE 4.6 mph - 0.01 in   Overcast
3:33 PM 66.2 °F 62.6 °F 88% 29.84 in 10.0 mi NE 9.2 mph - 0.01 in Rain Light Rain
3:41 PM 66.2 °F 62.6 °F 88% 29.84 in 10.0 mi East 10.4 mph - 0.01 in   Scattered Clouds
3:53 PM 66.0 °F 63.0 °F 90% 29.84 in 10.0 mi ENE 8.1 mph - 0.01 in   Partly Cloudy
4:53 PM 66.0 °F 62.1 °F 87% 29.83 in 10.0 mi ENE 4.6 mph - N/A   Mostly Cloudy
5:01 PM 66.2 °F 62.6 °F 88% 29.83 in 10.0 mi ENE 6.9 mph - N/A   Mostly Cloudy
5:53 PM 64.0 °F 62.1 °F 93% 29.86 in 3.0 mi North - - 0.05 in Rain Rain
5:58 PM 64.4 °F 62.6 °F 94% 29.86 in 1.8 mi North - - 0.04 in Rain Heavy Rain
6:08 PM 62.6 °F 62.6 °F 100% 29.85 in 2.0 mi North - - 0.13 in Rain Heavy Rain
6:18 PM 62.6 °F 62.6 °F 100% 29.86 in 9.0 mi North - - 0.14 in Rain Light Rain
6:25 PM 62.6 °F 62.6 °F 100% 29.85 in 10.0 mi North - - 0.14 in Rain Light Rain
6:53 PM 63.0 °F 61.0 °F 93% 29.86 in 7.0 mi North - - 0.14 in Rain Light Rain
7:02 PM 62.6 °F 60.8 °F 94% 29.86 in 6.0 mi North - - 0.04 in Rain Rain
7:25 PM 62.6 °F 60.8 °F 94% 29.86 in 5.0 mi North - - 0.10 in Rain Heavy Rain
7:53 PM 62.1 °F 60.1 °F 93% 29.85 in 10.0 mi North - - 0.17 in Rain Light Rain
8:15 PM 62.6 °F 60.8 °F 94% 29.86 in 10.0 mi North - - 0.00 in   Overcast
8:53 PM 62.1 °F 60.1 °F 93% 29.85 in 10.0 mi North - - 0.00 in   Overcast
9:53 PM 62.1 °F 61.0 °F 96% 29.83 in 10.0 mi North - - 0.02 in   Overcast
10:35 PM 62.6 °F 60.8 °F 94% 29.82 in 10.0 mi North - - N/A   Overcast
10:53 PM 62.1 °F 61.0 °F 96% 29.82 in 10.0 mi North - - N/A   Overcast
11:21 PM 62.6 °F 60.8 °F 94% 29.82 in 10.0 mi North - - N/A   Overcast
11:53 PM 63.0 °F 62.1 °F 97% 29.80 in 10.0 mi North - - N/A   Overcast